Preview of NWS' New Version of Forecast
This preview is not operational and should not be used for support decisions.

Regional Weather Roundup (RWR)

Issued by National Weather Service (NWS)

                            
000
ASCA42 TJSJ 210110
RWRPR 
PUERTO RICO/U.S. VIRGIN ISLANDS HOURLY WEATHER ROUNDUP
NATIONAL WEATHER SERVICE SAN JUAN PR
900 PM AST WED FEB 20 2019

PRZ001>002-007>008-010-210200-
PUERTO RICO
  
CITY           SKY/WX    TMP DP  RH WIND       PRES   REMARKS
SAN JUAN LMM   PTCLDY    75  72  88 E13       30.11R                  
AGUADILLA      PTCLDY    72 N/A N/A E12       30.11R                  
CEIBA          PTCLDY    73  68  83 E14       30.12R                  
$$

VIZ001>002-210200-
U.S. VIRGIN ISLANDS
  
CITY           SKY/WX    TMP DP  RH WIND       PRES   REMARKS
CHARLOTTE AMA  CLEAR     75  66  73 NE8       30.10R                  
CHRISTIANSTED  PTCLDY    79  66  65 NE14      30.10R                  
$$

HOURLY WEATHER ROUNDUP FOR THE NEWS MEDIA
  
CITY           SKY/WX    TMP DP  RH WIND       PRES   REMARKS
ORLANDO        MOCLDY    78  70  76 SE10      30.09R                  
NEW YORK       FRZ RAIN  32  32 100 E9        30.30F FOG     WCI  24  
NEWARK         FRZ RAIN  31  30  96 NE6       30.30S FOG     WCI  25  
CHICAGO        CLOUDY    36  32  85 SW16G26   29.75R WCI  26          
HARTFORD       CLOUDY    28  20  71 SE5       30.37F WCI  23          
BOSTON         FLURRIES  29  13  51 S8        30.37F WCI  21          
DALLAS         CLOUDY    53  40  61 SE8       29.95R                  
PHILADELPHIA   LGT RAIN  33  31  92 NE6       30.24F FOG     WCI  28  
LOS ANGELES    LGT RAIN  54  47  77 W16G24    29.79F                  
WASHINGTON DC  LGT RAIN  32  30  92 SE3       30.16F VSB 1